[[{"header":{"parameterUnit":"m.s-1","parameterCategory":2,"la1":30.2991,"la2":30.254,"lo1":-89.0895,"lo2":-89.0444,"dy":0.0017,"dx":0.0017,"nx":28,"ny":28,"refTime":"2026-02-11T03:00:00:Z","depth":"0","parameterNumber":2,"parameterNumberName":"U-component_of_CURRENTS"},"data":[0,0,0,0,0,0,0,0,0,0,0,0,0,0,0,0,0,0,0,0,0,0,0,0,0,0,0,0,0,0,0,0,0,0,0,0,0,0,0,0,0,0,0,0,0,0,0,0,0,0,0,0,0,0,0,0,0,0,0.2602,0.2603,0,0.2645,0.2645,0.2646,0.2645,0.2644,0.2644,0.2644,0.2645,0.2645,0.2645,0,0,0,0,0,0,0,0,0,0,0,0,0,0.2507,0.2508,0.2602,0.2603,0.2604,0.2645,0.2645,0.2646,0.2645,0.2644,0.2644,0.2644,0.2644,0.2645,0.2645,0,0,0,0,0,0,0,0,0,0,0,0,0,0.2546,0.2509,0.2602,0.261,0.2612,0.2645,0.2645,0.2646,0.2645,0.2644,0.2644,0.2643,0.2644,0.2645,0.2645,0.2658,0,0,0.2647,0.2647,0,0,0,0,0,0,0,0,0.2544,0.2549,0.2608,0.261,0.2612,0.2642,0.2612,0.2649,0.2645,0.2629,0.2644,0.2643,0.2642,0.2643,0.2648,0.2658,0.2658,0.2647,0.2647,0.2647,0.2647,0,0,0,0,0,0,0,0.2541,0.2547,0.2616,0.2609,0.2611,0.2608,0.2613,0.2619,0.2635,0.2631,0.2631,0.2641,0.2642,0.2648,0.2648,0.2658,0.2647,0.2647,0.2647,0.2648,0.2755,0.2758,0,0,0,0,0,0,0.2543,0.2545,0.2615,0.2618,0.2579,0.261,0.2616,0.263,0.2636,0.2637,0.2641,0.2641,0.2647,0.2648,0.2648,0.2725,0.2647,0.2648,0.2648,0.2753,0.2756,0.2759,0,0,0,0,0,0,0.2541,0.2549,0.2613,0.2584,0.2592,0.2613,0.2629,0.2631,0.2642,0.2645,0.2645,0.2651,0.2647,0.2647,0.2672,0.2722,0.2648,0.2648,0.275,0.2754,0.2757,0.2838,0,0,0,0,0,0,0.2538,0.2548,0.256,0.2585,0.2594,0.2637,0.263,0.2633,0.265,0.265,0.2653,0.2652,0.2646,0.2671,0.2672,0.2721,0.2649,0.2746,0.2751,0.2756,0.2832,0.2844,0.2854,0,0,0,0,0,0.2535,0.2546,0.256,0.2569,0.2609,0.2638,0.2643,0.2653,0.2651,0.266,0.2671,0.2652,0.2704,0.2673,0.2674,0.2724,0.2744,0.275,0.2756,0.2827,0.2841,0.2854,0,0,0,0,0,0,0.2508,0.2548,0.2564,0.2587,0.2616,0.2639,0.2646,0.2659,0.2675,0.2672,0.2672,0.2673,0.2721,0.271,0.2677,0.2773,0.2726,0.2732,0.278,0.2794,0.2805,0.2889,0.2649,0,0,0,0,0,0.2511,0.2529,0.257,0.2588,0.2602,0.2628,0.2641,0.2653,0.2672,0.2678,0.2682,0.2702,0.2747,0.2757,0.2778,0.2816,0.2863,0.2855,0.2866,0.2875,0.2947,0.3041,0.3068,0.2778,0.2778,0.2777,0,0,0.2505,0.253,0.254,0.2584,0.2602,0.2653,0.2633,0.2655,0.2709,0.2675,0.2727,0.2735,0.2766,0.2822,0.2843,0.2816,0.2978,0.2883,0.289,0.2959,0.305,0.3079,0.3104,0.2782,0.2781,0.278,0,0,0.2528,0.2526,0.2569,0.2596,0.2636,0.2654,0.2666,0.2697,0.2718,0.2763,0.2778,0.2835,0.2846,0.2916,0.2949,0.3039,0.3036,0.3017,0.314,0.3227,0.3253,0.3276,0.3354,0.3383,0.302,0.302,0.302,0,0.2529,0.2605,0.2583,0.264,0.2685,0.2665,0.2744,0.2756,0.2792,0.2841,0.2787,0.2915,0.292,0.3071,0.3106,0.3072,0.3106,0.3077,0.3244,0.3268,0.329,0.3365,0.3396,0.3024,0.3024,0.3023,0.3023,0,0.2616,0.2671,0.269,0.2768,0.279,0.2846,0.2872,0.2906,0.2913,0.294,0.3052,0.3071,0.3167,0.3164,0.3165,0.3339,0.3306,0.3245,0.321,0.3325,0.3395,0.3426,0.3031,0.3029,0.3028,0.3027,0,0,0.2675,0.2749,0.276,0.2821,0.2879,0.2902,0.2991,0.309,0.3156,0.3176,0.3296,0.3388,0.339,0.3436,0.3439,0.352,0.3687,0.3457,0.3459,0.3538,0.3879,0.3788,0.3812,0.3632,0.3638,0.3644,0.3858,0,0.2786,0.2899,0.292,0.3035,0.311,0.3127,0.32,0.3258,0.3291,0.3369,0.3436,0.351,0.349,0.3526,0.3624,0.3663,0.3777,0.3636,0.3758,0.3764,0.3671,0.3849,0.376,0.3938,0.3888,0.3893,0.3897,0,0.292,0.2977,0.3103,0.3196,0.3227,0.3273,0.3393,0.3453,0.3549,0.3574,0.3685,0.3692,0.3865,0.3778,0.3998,0.3896,0.3943,0.3959,0.3965,0.3893,0.3733,0.3821,0.3997,0.3883,0.3945,0.3942,0.3938,0,0.2999,0.3121,0.3219,0.3252,0.3335,0.34,0.3442,0.3523,0.3562,0.3702,0.3729,0.3913,0.3967,0.4094,0.4146,0.4082,0.4335,0.4234,0.4222,0.4213,0.418,0.4157,0.4276,0.4439,0.4438,0.4438,0.4437,0,0.3135,0.3212,0.3248,0.33,0.3386,0.3433,0.3518,0.359,0.3669,0.371,0.3822,0.3893,0.4041,0.4165,0.4234,0.4341,0.4423,0.4331,0.4297,0.4198,0.4176,0.4104,0.4029,0.4446,0.4444,0.4443,0.4441,0,0.3184,0.3237,0.3325,0.3401,0.3421,0.3454,0.3493,0.3536,0.3633,0.3701,0.3744,0.3903,0.4074,0.4214,0.4405,0.4418,0.4428,0.4551,0.4422,0.437,0.4205,0.4136,0.4151,0.4005,0.4601,0.46,0.46,0,0.3214,0.327,0.3327,0.3335,0.3358,0.3401,0.3417,0.3502,0.3529,0.3686,0.3713,0.3909,0.4011,0.4276,0.4396,0.4566,0.4421,0.4536,0.4419,0.4267,0.4168,0.3991,0.3852,0.4408,0.4406,0.4405,0.4403,0,0.3238,0.3242,0.3272,0.3285,0.3296,0.3299,0.3333,0.3343,0.3445,0.3512,0.3605,0.371,0.3989,0.4131,0.4361,0.4437,0.4321,0.4503,0.4409,0.4122,0.3885,0.3699,0.4176,0.4389,0.4391,0.4392,0.4392,0.4393,0.3194,0.3181,0.3195,0.3195,0.32,0.3169,0.3137,0.3179,0.32,0.3267,0.344,0.3567,0.3898,0.4205,0.4243,0.4273,0.42,0.4203,0.4168,0.4029,0.3792,0.423,0.4333,0.4334,0.4335,0.4336,0.4337,0,0.31,0.3095,0.31,0.3069,0.3023,0.3063,0.3049,0.2994,0.297,0.3117,0.3191,0.3501,0.3707,0.3939,0.4113,0.399,0.3817,0.3891,0.3663,0.3563,0.4052,0.3942,0.3886,0.3886,0.3886,0.3887,0.3887,0.3887,0.3046,0.3001,0.2998,0.2893,0.2869,0.276,0.2723,0.2678,0.2742,0.2809,0.2958,0.3156,0.3548,0.3889,0.3878,0.3785,0.3459,0.3368,0.3265,0.3657,0.3683,0.3707,0.3589,0.346,0.3459,0.2671,0.2665,0.2661]},{"header":{"parameterUnit":"m.s-1","parameterCategory":2,"la1":30.2991,"la2":30.254,"lo1":-89.0895,"lo2":-89.0444,"dy":0.0017,"dx":0.0017,"nx":28,"ny":28,"refTime":"2026-02-11T03:00:00:Z","depth":"0","parameterNumber":3,"parameterNumberName":"V-component_of_CURRENTS"},"data":[0,0,0,0,0,0,0,0,0,0,0,0,0,0,0,0,0,0,0,0,0,0,0,0,0,0,0,0,0,0,0,0,0,0,0,0,0,0,0,0,0,0,0,0,0,0,0,0,0,0,0,0,0,0,0,0,0,0,-0.0047,-0.0047,0,-0.0126,-0.0127,-0.0128,-0.0178,-0.0178,-0.0178,-0.0178,-0.0261,-0.0263,-0.0265,0,0,0,0,0,0,0,0,0,0,0,0,0,0.0012,0.0011,-0.0046,-0.0047,-0.0048,-0.0126,-0.0127,-0.0129,-0.0178,-0.0178,-0.0178,-0.0178,-0.026,-0.0262,-0.0265,0,0,0,0,0,0,0,0,0,0,0,0,0,-0.0037,0.0011,-0.0046,-0.008,-0.0084,-0.0126,-0.0127,-0.0129,-0.0178,-0.0178,-0.0178,-0.0178,-0.0259,-0.0262,-0.0265,-0.0283,0,0,-0.0275,-0.0276,0,0,0,0,0,0,0,0,-0.0034,-0.004,-0.0075,-0.0078,-0.0082,-0.014,-0.0137,-0.018,-0.0178,-0.0145,-0.0178,-0.0178,-0.0219,-0.0225,-0.0243,-0.0287,-0.0291,-0.0275,-0.0277,-0.0279,-0.028,0,0,0,0,0,0,0,-0.0031,-0.0037,-0.008,-0.0075,-0.008,-0.0109,-0.0116,-0.0146,-0.0182,-0.0148,-0.0151,-0.0156,-0.0221,-0.024,-0.0246,-0.0292,-0.0275,-0.0278,-0.028,-0.0281,-0.0283,-0.0281,0,0,0,0,0,0,-0.0014,-0.0033,-0.0078,-0.0083,-0.0055,-0.0109,-0.0117,-0.0123,-0.0182,-0.019,-0.0156,-0.0158,-0.0235,-0.0242,-0.0249,-0.0193,-0.0279,-0.0282,-0.0284,-0.0285,-0.0282,-0.028,0,0,0,0,0,0,-0.0012,-0.0017,-0.0075,-0.0058,-0.0067,-0.011,-0.0117,-0.0125,-0.0139,-0.0188,-0.0197,-0.016,-0.0235,-0.0244,-0.0259,-0.0199,-0.0283,-0.0286,-0.0287,-0.0284,-0.0281,-0.0132,0,0,0,0,0,0,-0.001,-0.0016,-0.0013,-0.0057,-0.0067,-0.0085,-0.0116,-0.0126,-0.0141,-0.0145,-0.0195,-0.0203,-0.0236,-0.0254,-0.0262,-0.0205,-0.0289,-0.0289,-0.0286,-0.0282,-0.014,-0.0125,-0.0112,0,0,0,0,0,-0.0008,0.0004,-0.0013,-0.0018,-0.0062,-0.0084,-0.0091,-0.0124,-0.0141,-0.0139,-0.0169,-0.0201,-0.0236,-0.0255,-0.0266,-0.0208,-0.0291,-0.0287,-0.0283,-0.0146,-0.0128,-0.0112,0,0,0,0,0,0,0.0033,-0.0001,-0.002,-0.0019,-0.0044,-0.0091,-0.0091,-0.0117,-0.0143,-0.0144,-0.0193,-0.0202,-0.0185,-0.0226,-0.0246,-0.0198,-0.0263,-0.026,-0.0155,-0.0139,-0.0125,-0.004,-0.0291,0,0,0,0,0,0.0043,0.0041,0.0003,0.0004,-0.0004,-0.0048,-0.0061,-0.0083,-0.0112,-0.0124,-0.0158,-0.0181,-0.0177,-0.0183,-0.0201,-0.0189,-0.0197,-0.0155,-0.0141,-0.0129,-0.0066,-0.0044,-0.0022,-0.0266,-0.0266,-0.0267,0,0,0.0059,0.004,0.0039,0.0012,-0.0011,0.0015,-0.0056,-0.0066,-0.0029,-0.0128,-0.0097,-0.014,-0.0165,-0.0137,-0.0132,-0.0164,-0.0069,-0.0124,-0.0113,-0.0055,-0.0037,-0.0013,0.0008,-0.0264,-0.0264,-0.0265,0,0,0.0122,0.0074,0.0113,0.0096,0.0073,0.0052,0.0056,0.0016,0.0012,0.0017,-0.0018,-0.0014,-0.0053,-0.0029,-0.0025,0.0054,0.0002,0.0027,0.017,0.0189,0.0211,0.023,0.0231,0.0249,0.0036,0.0036,0.0036,0,0.0152,0.0201,0.012,0.0157,0.0182,0.0084,0.0159,0.0129,0.0092,0.0121,0.005,0.0074,0.0026,0.013,0.015,0.0095,0.0078,0.0108,0.0211,0.023,0.0247,0.0244,0.0262,0.0044,0.0043,0.0042,0.0042,0,0.0265,0.0296,0.0314,0.0344,0.0342,0.038,0.0343,0.0341,0.0311,0.0296,0.0354,0.029,0.0324,0.0294,0.0242,0.0355,0.0293,0.0224,0.0177,0.0281,0.027,0.0286,0.0055,0.0052,0.005,0.0048,0,0,0.0411,0.0404,0.0422,0.0486,0.046,0.0492,0.053,0.0582,0.0651,0.0582,0.0697,0.067,0.0621,0.0627,0.0561,0.0566,0.0633,0.045,0.0447,0.0468,0.0664,0.0595,0.0604,0.0565,0.0569,0.0573,0.0601,0,0.0564,0.0683,0.0637,0.0782,0.0867,0.0789,0.0848,0.0855,0.0835,0.0889,0.0841,0.0891,0.0752,0.0772,0.0763,0.0668,0.0686,0.0632,0.0549,0.0548,0.0487,0.0625,0.0574,0.0594,0.0616,0.0618,0.062,0,0.0767,0.0817,0.0973,0.1059,0.1089,0.1141,0.1248,0.1278,0.1281,0.1263,0.1279,0.1204,0.1232,0.1074,0.1021,0.0982,0.0867,0.077,0.0767,0.068,0.0512,0.0496,0.0621,0.0362,0.0644,0.0642,0.0641,0,0.1008,0.1098,0.1241,0.1263,0.1302,0.1376,0.1405,0.1415,0.1453,0.1505,0.1529,0.1524,0.1526,0.1404,0.1178,0.1107,0.1089,0.0959,0.0807,0.0798,0.0737,0.0716,0.0628,0.0966,0.0966,0.0966,0.0966,0,0.125,0.1369,0.1362,0.1444,0.1594,0.1584,0.1727,0.1729,0.1766,0.1834,0.1744,0.1801,0.1602,0.1525,0.1309,0.1125,0.1198,0.09,0.0832,0.078,0.0765,0.0517,0.038,0.0967,0.0967,0.0966,0.0966,0,0.146,0.1482,0.1614,0.1675,0.1703,0.1797,0.1843,0.192,0.1961,0.2051,0.2074,0.203,0.195,0.1733,0.1545,0.1305,0.0977,0.1037,0.0982,0.0909,0.0495,0.0369,0.029,0.0165,0.0893,0.0892,0.0891,0,0.1558,0.165,0.172,0.1761,0.1775,0.1886,0.1934,0.1994,0.2059,0.2177,0.2233,0.2223,0.2201,0.192,0.1548,0.1237,0.0988,0.0944,0.0811,0.0534,0.0343,0.0261,0.0155,0.0772,0.077,0.0769,0.0767,0,0.1665,0.1672,0.1724,0.1815,0.1887,0.1974,0.2072,0.2162,0.2253,0.2356,0.2475,0.2498,0.226,0.1948,0.1531,0.1265,0.0749,0.0901,0.0645,0.0307,0.0188,0.0013,0.0667,0.0754,0.0756,0.0757,0.0757,0.0758,0.1647,0.1677,0.1727,0.182,0.1907,0.2046,0.2146,0.2268,0.2425,0.2605,0.2632,0.2714,0.2277,0.172,0.1335,0.061,0.0656,0.0353,0.0244,0.0202,0.0037,0.0665,0.0644,0.0645,0.0645,0.0646,0.0646,0,0.1593,0.1645,0.172,0.1843,0.1951,0.2016,0.2207,0.2329,0.2528,0.2708,0.2828,0.269,0.2074,0.1476,0.0534,0.0029,-0.0159,-0.0236,-0.0377,-0.0441,0.0143,0.0086,-0.0093,-0.0093,-0.0093,-0.0093,-0.0092,-0.0092,0.156,0.1613,0.168,0.1847,0.1948,0.2123,0.2247,0.2442,0.2618,0.2841,0.2932,0.299,0.2531,0.0854,-0.0327,-0.0579,-0.0926,-0.0971,-0.1121,-0.0772,-0.0726,-0.0683,-0.077,-0.1126,-0.1127,-0.1678,-0.1684,-0.1688]}],[{"header":{"parameterUnit":"m.s-1","parameterCategory":2,"la1":30.2991,"la2":30.254,"lo1":-89.0895,"lo2":-89.0444,"dy":0.0017,"dx":0.0017,"nx":28,"ny":28,"refTime":"2026-02-11T03:00:00:Z","depth":"2","parameterNumber":2,"parameterNumberName":"U-component_of_CURRENTS"},"data":[0,0,0,0,0,0,0,0,0,0,0,0,0,0,0,0,0,0,0,0,0,0,0,0,0,0,0,0,0,0,0,0,0,0,0,0,0,0,0,0,0,0,0,0,0,0,0,0,0,0,0,0,0,0,0,0,0,0,0.1964,0.1965,0,0.2013,0.2014,0.2014,0.2022,0.2022,0.2022,0.2022,0.2044,0.2045,0.2045,0,0,0,0,0,0,0,0,0,0,0,0,0,0.1899,0.1899,0.1964,0.1965,0.1966,0.2013,0.2014,0.2014,0.2023,0.2022,0.2022,0.2022,0.2043,0.2044,0.2045,0,0,0,0,0,0,0,0,0,0,0,0,0,0.1934,0.19,0.1964,0.1977,0.1978,0.2013,0.2014,0.2014,0.2023,0.2022,0.2022,0.2021,0.2043,0.2044,0.2046,0.2062,0,0,0.2049,0.205,0,0,0,0,0,0,0,0,0.1932,0.1936,0.1974,0.1976,0.1978,0.2013,0.1999,0.203,0.2023,0.2004,0.2022,0.2021,0.2032,0.2034,0.2043,0.2063,0.2064,0.205,0.205,0.2051,0.2051,0,0,0,0,0,0,0,0.1929,0.1934,0.1982,0.1975,0.1977,0.1987,0.1991,0.2005,0.2018,0.2006,0.2007,0.2015,0.2033,0.2041,0.2043,0.2064,0.205,0.2051,0.2051,0.2052,0.2152,0.2154,0,0,0,0,0,0,0.1926,0.1932,0.1981,0.1984,0.1955,0.1989,0.1993,0.2001,0.2019,0.2022,0.2015,0.2015,0.2039,0.2042,0.2044,0.2104,0.2051,0.2052,0.2053,0.215,0.2153,0.2155,0,0,0,0,0,0,0.1924,0.193,0.1979,0.196,0.1967,0.199,0.1998,0.2002,0.2021,0.2027,0.2029,0.2033,0.2039,0.2042,0.2059,0.2103,0.2053,0.2054,0.2148,0.2151,0.2154,0.2198,0,0,0,0,0,0,0.1922,0.1929,0.1939,0.196,0.1968,0.2006,0.1999,0.2003,0.2027,0.2028,0.2042,0.2043,0.2039,0.2057,0.206,0.2104,0.2055,0.2146,0.2149,0.2153,0.2194,0.2202,0.2208,0,0,0,0,0,0.192,0.1936,0.1939,0.1945,0.1979,0.2007,0.2013,0.2026,0.2029,0.2042,0.2045,0.2043,0.2083,0.2058,0.2062,0.2107,0.2144,0.2148,0.2152,0.219,0.22,0.2208,0,0,0,0,0,0,0.1908,0.1939,0.1943,0.1966,0.1988,0.2009,0.2027,0.2036,0.2052,0.2048,0.2052,0.2054,0.2089,0.2092,0.2066,0.2149,0.212,0.2125,0.2148,0.2157,0.2164,0.2195,0.2056,0,0,0,0,0,0.1911,0.1936,0.1958,0.1979,0.199,0.2011,0.2027,0.2032,0.2047,0.2054,0.207,0.2088,0.2111,0.2125,0.214,0.2178,0.219,0.2216,0.2223,0.2229,0.2259,0.2317,0.2332,0.2169,0.2169,0.2168,0,0,0.1912,0.1934,0.1947,0.1979,0.1997,0.2029,0.2019,0.2042,0.2078,0.2054,0.2107,0.2108,0.2124,0.2166,0.2185,0.2173,0.2275,0.2235,0.224,0.2267,0.2323,0.2339,0.2353,0.2171,0.2171,0.217,0,0,0.193,0.1945,0.1972,0.1994,0.2023,0.2043,0.2054,0.2083,0.2103,0.2139,0.214,0.2171,0.2201,0.2233,0.2249,0.231,0.2306,0.2316,0.2384,0.2439,0.2453,0.2465,0.2465,0.2477,0.2326,0.2326,0.2326,0,0.1931,0.1967,0.1984,0.2015,0.2045,0.2055,0.2092,0.2119,0.2152,0.2184,0.2161,0.2246,0.2244,0.2326,0.234,0.233,0.2338,0.2342,0.2448,0.2461,0.2473,0.247,0.2483,0.2328,0.2328,0.2328,0.2328,0,0.1964,0.1999,0.2018,0.2069,0.2102,0.2132,0.2171,0.2205,0.2228,0.2261,0.2336,0.2343,0.2404,0.2405,0.2385,0.2484,0.2451,0.2442,0.2423,0.2492,0.2484,0.2497,0.2332,0.2331,0.233,0.233,0,0,0.196,0.203,0.204,0.2063,0.2133,0.2152,0.2229,0.23,0.2344,0.2394,0.248,0.2519,0.2535,0.2557,0.2554,0.2594,0.2654,0.2555,0.2557,0.2549,0.274,0.2698,0.2706,0.2662,0.2665,0.2668,0.2685,0,0.1987,0.2043,0.2091,0.2153,0.218,0.2233,0.2292,0.2354,0.2413,0.2493,0.2552,0.2617,0.2593,0.2615,0.2665,0.2665,0.2697,0.2648,0.2681,0.2681,0.2632,0.2725,0.253,0.253,0.2698,0.27,0.2701,0,0.2011,0.2042,0.2104,0.2172,0.219,0.2237,0.2334,0.2394,0.2515,0.2549,0.2661,0.2716,0.2821,0.2769,0.2853,0.2821,0.2795,0.2779,0.278,0.2745,0.2666,0.2497,0.2547,0.2722,0.2721,0.2719,0.2718,0,0.198,0.2058,0.2104,0.2128,0.2204,0.225,0.2308,0.2415,0.2474,0.2615,0.2679,0.281,0.2851,0.2914,0.2922,0.2891,0.298,0.2933,0.2869,0.2862,0.271,0.2686,0.2988,0.2988,0.2988,0.2988,0.2988,0,0.1989,0.2017,0.2082,0.21,0.2143,0.2215,0.2284,0.2359,0.2485,0.2565,0.2715,0.2804,0.2885,0.2967,0.2975,0.298,0.3035,0.2912,0.2892,0.2715,0.2692,0.2875,0.2861,0.2989,0.2989,0.2988,0.2988,0,0.1924,0.1993,0.202,0.2094,0.213,0.215,0.2266,0.2306,0.2434,0.2562,0.2624,0.2793,0.2886,0.2971,0.3019,0.3003,0.304,0.3009,0.2775,0.2729,0.2858,0.2847,0.2957,0.2956,0.2956,0.2955,0.2955,0,0.1879,0.1894,0.1977,0.2,0.2037,0.2085,0.2123,0.226,0.2325,0.2554,0.2618,0.2771,0.2851,0.2946,0.2957,0.2991,0.3012,0.279,0.2717,0.29,0.2868,0.2858,0.2848,0.2501,0.2496,0.2493,0.249,0,0.1781,0.1825,0.1845,0.1901,0.1954,0.1987,0.2077,0.2121,0.2287,0.239,0.2557,0.2665,0.2786,0.2745,0.2779,0.2773,0.2791,0.2721,0.3006,0.2553,0.2476,0.2443,0.2446,0.246,0.2463,0.2466,0.2467,0.2468,0.1689,0.168,0.1752,0.1787,0.1858,0.1909,0.1912,0.1995,0.2083,0.2221,0.2377,0.2448,0.2533,0.2502,0.2477,0.2469,0.2636,0.252,0.2528,0.254,0.2498,0.2427,0.239,0.2393,0.2395,0.2397,0.2399,0,0.1579,0.1613,0.1642,0.172,0.1748,0.1841,0.1894,0.1851,0.1897,0.2028,0.2116,0.201,0.2027,0.2133,0.2094,0.2128,0.2075,0.2035,0.1947,0.1981,0.2011,0.1938,0.1684,0.1681,0.1678,0.1676,0,0,0.1528,0.1537,0.1566,0.1612,0.167,0.1692,0.1698,0.1633,0.1671,0.1653,0.1697,0.1869,0.2053,0.1804,0.1821,0.1745,0.1828,0.1679,0.2263,0.2193,0.2217,0.2319,0.2252,0,0,0,0,0]},{"header":{"parameterUnit":"m.s-1","parameterCategory":2,"la1":30.2991,"la2":30.254,"lo1":-89.0895,"lo2":-89.0444,"dy":0.0017,"dx":0.0017,"nx":28,"ny":28,"refTime":"2026-02-11T03:00:00:Z","depth":"2","parameterNumber":3,"parameterNumberName":"V-component_of_CURRENTS"},"data":[0,0,0,0,0,0,0,0,0,0,0,0,0,0,0,0,0,0,0,0,0,0,0,0,0,0,0,0,0,0,0,0,0,0,0,0,0,0,0,0,0,0,0,0,0,0,0,0,0,0,0,0,0,0,0,0,0,0,-0.0062,-0.0062,0,-0.0123,-0.0124,-0.0124,-0.0167,-0.0167,-0.0168,-0.0168,-0.0248,-0.025,-0.0252,0,0,0,0,0,0,0,0,0,0,0,0,0,-0.0031,-0.0032,-0.0061,-0.0062,-0.0063,-0.0123,-0.0124,-0.0125,-0.0167,-0.0167,-0.0168,-0.0168,-0.0247,-0.0249,-0.0252,0,0,0,0,0,0,0,0,0,0,0,0,0,-0.0065,-0.0032,-0.0061,-0.009,-0.0094,-0.0123,-0.0124,-0.0125,-0.0167,-0.0167,-0.0168,-0.0168,-0.0246,-0.0249,-0.0252,-0.0263,0,0,-0.0261,-0.0262,0,0,0,0,0,0,0,0,-0.0063,-0.0066,-0.0086,-0.0089,-0.0092,-0.0137,-0.0142,-0.0172,-0.0167,-0.014,-0.0168,-0.0168,-0.0211,-0.0217,-0.0229,-0.0267,-0.027,-0.0261,-0.0263,-0.0264,-0.0265,0,0,0,0,0,0,0,-0.006,-0.0064,-0.0087,-0.0086,-0.009,-0.0118,-0.0122,-0.0148,-0.0174,-0.0143,-0.0146,-0.0151,-0.0214,-0.0226,-0.0232,-0.0271,-0.0261,-0.0264,-0.0265,-0.0267,-0.0327,-0.0327,0,0,0,0,0,0,-0.0047,-0.0061,-0.0085,-0.0089,-0.0077,-0.0118,-0.0123,-0.0123,-0.0174,-0.0181,-0.015,-0.0152,-0.0221,-0.0228,-0.0235,-0.0243,-0.0264,-0.0267,-0.0268,-0.0327,-0.0327,-0.0327,0,0,0,0,0,0,-0.0046,-0.0049,-0.0082,-0.0076,-0.0082,-0.0117,-0.0117,-0.0124,-0.0138,-0.0179,-0.0188,-0.0157,-0.0222,-0.023,-0.0253,-0.0246,-0.0268,-0.0271,-0.0327,-0.0327,-0.0327,-0.0264,0,0,0,0,0,0,-0.0045,-0.0048,-0.0044,-0.0075,-0.0082,-0.0093,-0.0117,-0.0125,-0.014,-0.0143,-0.0188,-0.0196,-0.0223,-0.0248,-0.0255,-0.0251,-0.0273,-0.0327,-0.0327,-0.0327,-0.0266,-0.0262,-0.0258,0,0,0,0,0,-0.0044,-0.0034,-0.0043,-0.0046,-0.0075,-0.0093,-0.0099,-0.0127,-0.014,-0.0141,-0.017,-0.0194,-0.0252,-0.025,-0.0259,-0.0255,-0.0327,-0.0327,-0.0327,-0.0268,-0.0263,-0.0258,0,0,0,0,0,0,-0.0018,-0.0038,-0.0049,-0.0045,-0.0065,-0.0099,-0.0103,-0.0123,-0.0148,-0.015,-0.0192,-0.0201,-0.022,-0.0246,-0.0243,-0.0273,-0.0294,-0.0296,-0.0247,-0.0242,-0.0238,-0.0219,-0.0275,0,0,0,0,0,-0.0009,-0.0008,-0.0033,-0.003,-0.0037,-0.007,-0.0081,-0.0098,-0.0124,-0.0136,-0.0168,-0.02,-0.0226,-0.024,-0.0268,-0.0282,-0.0312,-0.0286,-0.0282,-0.0278,-0.027,-0.0305,-0.0302,-0.0326,-0.0326,-0.0326,0,0,-0.0,-0.0009,-0.001,-0.0025,-0.0042,-0.0046,-0.0077,-0.0087,-0.009,-0.014,-0.0154,-0.0188,-0.0227,-0.0243,-0.0254,-0.0263,-0.029,-0.0278,-0.0274,-0.0268,-0.0304,-0.0302,-0.03,-0.0325,-0.0325,-0.0326,0,0,0.0019,0.0014,0.0019,0.0009,-0.001,-0.0026,-0.0026,-0.0058,-0.007,-0.0088,-0.0124,-0.0147,-0.0193,-0.0214,-0.0231,-0.022,-0.0268,-0.0237,-0.0199,-0.0232,-0.023,-0.0229,-0.0272,-0.0275,-0.0233,-0.0233,-0.0232,0,0.0031,0.0036,0.0017,0.002,0.0019,-0.0012,-0.0005,-0.0021,-0.0057,-0.0062,-0.0083,-0.0143,-0.0175,-0.0189,-0.0187,-0.0209,-0.0243,-0.0212,-0.0226,-0.0225,-0.0225,-0.0269,-0.0273,-0.023,-0.023,-0.023,-0.023,0,0.0049,0.0056,0.0061,0.0057,0.0055,0.0057,0.0038,0.0029,0.0009,-0.0011,-0.0033,-0.0079,-0.0109,-0.0129,-0.0156,-0.0169,-0.0199,-0.0217,-0.0234,-0.0218,-0.0266,-0.0271,-0.0225,-0.0226,-0.0227,-0.0228,0,0,0.0062,0.0073,0.0074,0.0078,0.0078,0.0072,0.0083,0.0077,0.0078,0.0043,0.0043,-0.0004,-0.003,-0.0051,-0.009,-0.0122,-0.0153,-0.0165,-0.0168,-0.02,-0.024,-0.024,-0.0246,-0.0177,-0.0177,-0.0178,-0.0277,0,0.008,0.0101,0.0106,0.0123,0.0127,0.0121,0.0125,0.0118,0.011,0.0102,0.0064,0.0044,0.0002,-0.0014,-0.0048,-0.0123,-0.0163,-0.0125,-0.0257,-0.0261,-0.0256,-0.025,-0.0224,-0.0308,-0.0282,-0.0283,-0.0284,0,0.0086,0.0102,0.013,0.0144,0.0146,0.0155,0.0166,0.0168,0.0162,0.0149,0.0139,0.0116,0.0083,0.0037,-0.0071,-0.0048,-0.0136,-0.0204,-0.0209,-0.0231,-0.027,-0.032,-0.0319,-0.0293,-0.0293,-0.0292,-0.0291,0,0.0084,0.0112,0.0138,0.0144,0.0159,0.0171,0.0176,0.018,0.0194,0.0187,0.0193,0.0156,0.0121,0.0037,-0.0071,-0.0079,-0.0204,-0.0231,-0.032,-0.0322,-0.0335,-0.0337,-0.0322,-0.0322,-0.0321,-0.0321,-0.0321,0,0.0092,0.0105,0.0136,0.0146,0.0175,0.0172,0.0207,0.0201,0.0216,0.0255,0.0216,0.024,0.0115,0.0051,-0.0052,-0.0189,-0.0188,-0.0311,-0.0342,-0.0314,-0.0312,-0.0326,-0.0325,-0.0325,-0.0324,-0.0323,-0.0323,0,0.0086,0.0102,0.0132,0.0163,0.0175,0.0192,0.024,0.0273,0.0253,0.0308,0.0313,0.028,0.0195,0.0069,-0.0085,-0.0178,-0.0297,-0.0357,-0.0315,-0.0339,-0.0405,-0.04,-0.0463,-0.0463,-0.0464,-0.0465,-0.0465,0,0.0088,0.0104,0.0157,0.0196,0.0218,0.0251,0.0292,0.0291,0.0352,0.0361,0.0408,0.0326,0.0333,0.0099,-0.0097,-0.0288,-0.0321,-0.0402,-0.0405,-0.0392,-0.0417,-0.0411,-0.0405,-0.0412,-0.0412,-0.0412,-0.0412,0,0.0108,0.0129,0.0175,0.0249,0.0301,0.0365,0.043,0.0482,0.0506,0.0554,0.0624,0.0622,0.0374,0.0206,-0.01,-0.0227,-0.0358,-0.0408,-0.0409,-0.0367,-0.0348,-0.0371,-0.0367,-0.0412,-0.0412,-0.0412,-0.0412,-0.0412,0.0143,0.0185,0.0252,0.0329,0.0388,0.0485,0.0572,0.0663,0.0764,0.0853,0.0813,0.0805,0.0526,0.0172,-0.0083,-0.0368,-0.037,-0.045,-0.0449,-0.0448,-0.041,-0.0392,-0.0458,-0.0459,-0.0459,-0.0459,-0.0459,0,0.0199,0.0252,0.0331,0.0425,0.0519,0.0523,0.0676,0.0779,0.0942,0.1004,0.1054,0.0823,0.0584,0.0266,-0.0151,-0.0399,-0.0423,-0.0473,-0.0445,-0.0444,-0.0443,-0.0405,-0.0452,-0.0453,-0.0453,-0.0454,0,0,0.0237,0.0326,0.0371,0.0529,0.0594,0.0732,0.0837,0.0977,0.1077,0.1171,0.1169,0.1077,0.0696,0.0404,0.0037,-0.0196,-0.0255,-0.0244,-0.0224,-0.0148,-0.0143,-0.041,-0.0346,0,0,0,0,0]}],[{"header":{"parameterUnit":"m.s-1","parameterCategory":2,"la1":30.2991,"la2":30.254,"lo1":-89.0895,"lo2":-89.0444,"dy":0.0017,"dx":0.0017,"nx":28,"ny":28,"refTime":"2026-02-11T03:00:00:Z","depth":"4","parameterNumber":2,"parameterNumberName":"U-component_of_CURRENTS"},"data":[0,0,0,0,0,0,0,0,0,0,0,0,0,0,0,0,0,0,0,0,0,0,0,0,0,0,0,0,0,0,0,0,0,0,0,0,0,0,0,0,0,0,0,0,0,0,0,0,0,0,0,0,0,0,0,0,0,0,0.1175,0.1175,0,0.1214,0.1214,0.1215,0.1249,0.1249,0.125,0.125,0.1295,0.1296,0.1296,0,0,0,0,0,0,0,0,0,0,0,0,0,0.1107,0.1108,0.1174,0.1175,0.1176,0.1214,0.1214,0.1215,0.1248,0.1249,0.125,0.1251,0.1295,0.1295,0.1296,0,0,0,0,0,0,0,0,0,0,0,0,0,0.1138,0.1108,0.1174,0.1199,0.1202,0.1214,0.1214,0.1215,0.1248,0.1249,0.125,0.1251,0.1294,0.1295,0.1296,0.1285,0,0,0.1299,0.13,0,0,0,0,0,0,0,0,0.1136,0.114,0.1195,0.1197,0.12,0.1229,0.1207,0.1239,0.1248,0.1228,0.125,0.1251,0.1274,0.1277,0.1279,0.1287,0.1289,0.1299,0.13,0.13,0.1301,0,0,0,0,0,0,0,0.1134,0.1139,0.1188,0.1195,0.1199,0.1201,0.1206,0.1213,0.1244,0.123,0.1233,0.1241,0.1276,0.1278,0.1281,0.129,0.1299,0.13,0.1301,0.1301,0.1387,0.1389,0,0,0,0,0,0,0.1134,0.1137,0.1187,0.1189,0.1173,0.1202,0.1208,0.1217,0.1244,0.125,0.124,0.1242,0.1276,0.1279,0.1282,0.1361,0.13,0.1301,0.1302,0.1385,0.1388,0.1389,0,0,0,0,0,0,0.1133,0.1138,0.1185,0.1166,0.1172,0.1202,0.1213,0.1218,0.1248,0.1252,0.1258,0.1268,0.1277,0.1281,0.1324,0.1359,0.1302,0.1303,0.1383,0.1386,0.1388,0.1459,0,0,0,0,0,0,0.1131,0.1137,0.1152,0.1166,0.1173,0.1211,0.1212,0.1218,0.125,0.1254,0.1277,0.1281,0.1278,0.1323,0.1325,0.1359,0.1303,0.1381,0.1385,0.1388,0.1455,0.1464,0.1471,0,0,0,0,0,0.1128,0.1141,0.1152,0.1159,0.119,0.1213,0.1217,0.1239,0.1251,0.1268,0.1294,0.1282,0.1344,0.1325,0.1327,0.1363,0.138,0.1384,0.1387,0.1451,0.1462,0.1471,0,0,0,0,0,0,0.1122,0.1146,0.1159,0.118,0.1205,0.122,0.1239,0.1254,0.1286,0.1297,0.1302,0.1308,0.1359,0.1351,0.1329,0.1398,0.136,0.1365,0.1408,0.1418,0.1426,0.1428,0.1304,0,0,0,0,0,0.1126,0.1145,0.1168,0.119,0.1203,0.1226,0.1242,0.1258,0.1284,0.1299,0.1322,0.1345,0.137,0.1388,0.1404,0.1439,0.1431,0.1464,0.1472,0.1479,0.1483,0.1505,0.1515,0.1402,0.1402,0.1402,0,0,0.1131,0.1148,0.116,0.1191,0.121,0.1237,0.1238,0.127,0.1303,0.1298,0.1358,0.1376,0.1387,0.1433,0.1454,0.1434,0.151,0.1484,0.149,0.149,0.151,0.1521,0.153,0.1405,0.1404,0.1404,0,0,0.1144,0.1166,0.1184,0.1207,0.1243,0.1259,0.1275,0.1309,0.1338,0.1388,0.1401,0.1447,0.1478,0.1503,0.1514,0.1578,0.1555,0.1582,0.1627,0.1649,0.1658,0.1666,0.1679,0.1688,0.1586,0.1586,0.1586,0,0.1149,0.1176,0.1195,0.1219,0.1243,0.1274,0.1302,0.1334,0.1384,0.1414,0.1419,0.1496,0.1513,0.157,0.16,0.1599,0.1599,0.1587,0.1659,0.1667,0.1674,0.1685,0.1694,0.159,0.159,0.1589,0.1589,0,0.1171,0.1201,0.1216,0.1259,0.1287,0.1318,0.1361,0.1404,0.1443,0.1476,0.1549,0.1579,0.1627,0.1642,0.1643,0.1707,0.1687,0.1667,0.1631,0.1689,0.1698,0.1706,0.1596,0.1594,0.1593,0.1592,0,0,0.1154,0.1219,0.1227,0.1247,0.1311,0.1327,0.1398,0.1457,0.1497,0.1563,0.162,0.1689,0.1713,0.1729,0.1743,0.1765,0.1827,0.1743,0.1742,0.1752,0.187,0.1776,0.1775,0.1815,0.1817,0.1818,0.1858,0,0.1167,0.1209,0.1251,0.1299,0.1316,0.1375,0.143,0.1491,0.1547,0.161,0.1669,0.1728,0.1744,0.1773,0.1808,0.1817,0.1848,0.1817,0.1814,0.1814,0.1721,0.1782,0.1823,0.1864,0.1865,0.1866,0.1867,0,0.1164,0.1193,0.1239,0.1299,0.1316,0.1359,0.1438,0.1496,0.1596,0.1641,0.1723,0.1766,0.1849,0.1835,0.1906,0.1883,0.1893,0.1891,0.1892,0.1783,0.1735,0.1792,0.1881,0.1879,0.1879,0.1878,0.1877,0,0.1105,0.1177,0.1212,0.1235,0.1315,0.1357,0.1414,0.1507,0.1556,0.1671,0.1713,0.1811,0.1863,0.19,0.1942,0.1925,0.1987,0.1958,0.1885,0.1879,0.1917,0.1908,0.2003,0.2003,0.2003,0.2002,0.2002,0,0.1076,0.1102,0.1188,0.1201,0.1241,0.132,0.1381,0.1451,0.1554,0.1613,0.1731,0.1785,0.188,0.1936,0.1956,0.1952,0.2011,0.1904,0.1887,0.1947,0.1941,0.1923,0.1913,0.2004,0.2004,0.2003,0.2003,0,0.0994,0.106,0.1089,0.1179,0.1209,0.1237,0.1349,0.1391,0.1507,0.1587,0.1632,0.1776,0.1859,0.1933,0.199,0.1957,0.1964,0.1946,0.2019,0.2003,0.1835,0.1829,0.1859,0.1856,0.1854,0.1852,0.185,0,0.0949,0.096,0.1046,0.1066,0.1112,0.1175,0.1221,0.1348,0.1401,0.157,0.1599,0.173,0.1817,0.1828,0.1915,0.1949,0.1933,0.1919,0.187,0.1842,0.1823,0.182,0.1817,0.1846,0.1846,0.1845,0.1844,0,0.0856,0.0903,0.0934,0.0972,0.1019,0.1068,0.1152,0.1179,0.1337,0.1443,0.1533,0.1604,0.1694,0.1767,0.1811,0.1832,0.1916,0.1893,0.1897,0.1851,0.1827,0.181,0.181,0.1836,0.1837,0.1838,0.1839,0,0.0786,0.0784,0.0836,0.0867,0.0919,0.0957,0.1016,0.1097,0.1168,0.1363,0.1389,0.1545,0.1668,0.1708,0.1752,0.1768,0.1743,0.168,0.1695,0.1705,0.1642,0.1587,0.1517,0,0,0,0,0,0.0707,0.0709,0.0726,0.0758,0.0812,0.0854,0.0967,0.1043,0.1192,0.1213,0.13,0.1387,0.1481,0.1569,0.1558,0.1692,0.1747,0.1673,0.168,0.1789,0.1799,0.1741,0,0,0,0,0,0,0.0654,0.067,0.0689,0.067,0.068,0.0734,0.0814,0.0922,0.0953,0.1109,0.1171,0.1287,0.1401,0.1456,0.1519,0.1545,0.1521,0.1768,0.1765,0.1784,0.1793,0.1801,0.1744,0,0,0,0,0]},{"header":{"parameterUnit":"m.s-1","parameterCategory":2,"la1":30.2991,"la2":30.254,"lo1":-89.0895,"lo2":-89.0444,"dy":0.0017,"dx":0.0017,"nx":28,"ny":28,"refTime":"2026-02-11T03:00:00:Z","depth":"4","parameterNumber":3,"parameterNumberName":"V-component_of_CURRENTS"},"data":[0,0,0,0,0,0,0,0,0,0,0,0,0,0,0,0,0,0,0,0,0,0,0,0,0,0,0,0,0,0,0,0,0,0,0,0,0,0,0,0,0,0,0,0,0,0,0,0,0,0,0,0,0,0,0,0,0,0,0.0025,0.0025,0,-0.0009,-0.0009,-0.001,-0.0036,-0.0036,-0.0037,-0.0037,-0.0087,-0.0088,-0.0089,0,0,0,0,0,0,0,0,0,0,0,0,0,0.0037,0.0037,0.0025,0.0025,0.0025,-0.0009,-0.0009,-0.001,-0.0036,-0.0036,-0.0037,-0.0037,-0.0087,-0.0088,-0.0089,0,0,0,0,0,0,0,0,0,0,0,0,0,0.002,0.0037,0.0025,0.0008,0.0006,-0.0009,-0.0009,-0.001,-0.0036,-0.0036,-0.0037,-0.0037,-0.0086,-0.0088,-0.0089,-0.0093,0,0,-0.0095,-0.0095,0,0,0,0,0,0,0,0,0.0021,0.002,0.0011,0.0009,0.0007,-0.0018,-0.0024,-0.0038,-0.0036,-0.0021,-0.0037,-0.0037,-0.0065,-0.0068,-0.0074,-0.0095,-0.0098,-0.0095,-0.0096,-0.0097,-0.0097,0,0,0,0,0,0,0,0.0023,0.0021,0.0012,0.001,0.0008,-0.0009,-0.0012,-0.0027,-0.0041,-0.0022,-0.0024,-0.0027,-0.0066,-0.0073,-0.0076,-0.0098,-0.0095,-0.0096,-0.0097,-0.0098,-0.0144,-0.0144,0,0,0,0,0,0,0.0029,0.0022,0.0013,0.0011,0.0014,-0.0009,-0.0012,-0.001,-0.0041,-0.0045,-0.0027,-0.0028,-0.007,-0.0074,-0.0078,-0.0096,-0.0097,-0.0098,-0.0099,-0.0144,-0.0144,-0.0144,0,0,0,0,0,0,0.003,0.0029,0.0014,0.0015,0.0012,-0.0008,-0.0007,-0.0011,-0.0018,-0.0044,-0.0049,-0.003,-0.007,-0.0075,-0.0094,-0.0097,-0.0099,-0.01,-0.0144,-0.0144,-0.0144,-0.0124,0,0,0,0,0,0,0.003,0.003,0.0034,0.0016,0.0013,0.0008,-0.0006,-0.0011,-0.002,-0.0022,-0.0049,-0.0054,-0.0071,-0.0091,-0.0095,-0.01,-0.0102,-0.0143,-0.0144,-0.0144,-0.0124,-0.0124,-0.0123,0,0,0,0,0,0.0031,0.004,0.0035,0.0034,0.002,0.0009,0.0005,-0.0011,-0.0019,-0.002,-0.0042,-0.0053,-0.0097,-0.0092,-0.0097,-0.0102,-0.0143,-0.0144,-0.0144,-0.0125,-0.0124,-0.0123,0,0,0,0,0,0,0.0047,0.0037,0.0032,0.0037,0.0025,0.0004,0.0003,-0.0009,-0.0026,-0.0028,-0.0054,-0.0061,-0.0079,-0.0093,-0.0087,-0.0117,-0.0122,-0.0124,-0.0106,-0.0105,-0.0105,-0.0104,-0.0103,0,0,0,0,0,0.0053,0.0058,0.0043,0.0047,0.0043,0.0024,0.0017,0.0006,-0.0011,-0.0019,-0.004,-0.0063,-0.0085,-0.0096,-0.0115,-0.0128,-0.0151,-0.0136,-0.0135,-0.0134,-0.0138,-0.0176,-0.0179,-0.0146,-0.0146,-0.0146,0,0,0.006,0.0056,0.0058,0.0051,0.004,0.0035,0.0019,0.0013,0.0005,-0.0022,-0.0038,-0.006,-0.0088,-0.0106,-0.0115,-0.0118,-0.0154,-0.0135,-0.0134,-0.0138,-0.0177,-0.018,-0.0183,-0.0146,-0.0146,-0.0146,0,0,0.007,0.0072,0.0075,0.0069,0.0057,0.0047,0.0046,0.0027,0.0016,0.0,-0.0025,-0.0051,-0.0077,-0.0103,-0.0119,-0.0125,-0.0149,-0.0129,-0.0126,-0.0162,-0.0165,-0.0168,-0.0195,-0.0201,-0.0129,-0.0129,-0.0129,0,0.0077,0.0078,0.0074,0.0072,0.0068,0.0054,0.0051,0.004,0.0015,0.0003,-0.0001,-0.0056,-0.0078,-0.0112,-0.0116,-0.0124,-0.0145,-0.0125,-0.0161,-0.0165,-0.0168,-0.0195,-0.0202,-0.0128,-0.0128,-0.0128,-0.0128,0,0.0081,0.0085,0.0087,0.0081,0.0079,0.0076,0.0062,0.0053,0.004,0.0022,-0.001,-0.0043,-0.0076,-0.0088,-0.0105,-0.0141,-0.0148,-0.0155,-0.0162,-0.017,-0.0198,-0.0205,-0.0126,-0.0127,-0.0127,-0.0127,0,0,0.0083,0.0089,0.0088,0.0096,0.0084,0.0088,0.0074,0.0057,0.0052,0.0021,0.0002,-0.0043,-0.0062,-0.0082,-0.0108,-0.0143,-0.0184,-0.0158,-0.016,-0.0182,-0.0261,-0.0237,-0.0242,-0.0198,-0.0199,-0.02,-0.0268,0,0.0082,0.0095,0.0091,0.0102,0.0108,0.0095,0.009,0.0075,0.0057,0.0038,-0.0008,-0.003,-0.0058,-0.0071,-0.0113,-0.0166,-0.0203,-0.0164,-0.0252,-0.0254,-0.023,-0.025,-0.0204,-0.0274,-0.0275,-0.0276,-0.0277,0,0.0075,0.0091,0.0104,0.0123,0.0125,0.0129,0.0125,0.0118,0.0083,0.0067,0.0026,-0.0004,-0.0062,-0.0077,-0.0182,-0.0156,-0.0207,-0.025,-0.0253,-0.0244,-0.0244,-0.0266,-0.029,-0.0289,-0.0288,-0.0288,-0.0287,0,0.0081,0.0096,0.0115,0.0119,0.0136,0.0139,0.0145,0.0124,0.0137,0.0086,0.0092,0.0006,-0.0013,-0.0107,-0.0189,-0.019,-0.0297,-0.0309,-0.0339,-0.0337,-0.0347,-0.0343,-0.0384,-0.0384,-0.0384,-0.0384,-0.0384,0,0.0082,0.0098,0.0125,0.014,0.0178,0.0167,0.0195,0.0183,0.0174,0.0199,0.0117,0.0118,-0.0019,-0.0089,-0.0185,-0.0279,-0.0297,-0.0345,-0.0357,-0.0336,-0.033,-0.0352,-0.0347,-0.0386,-0.0386,-0.0385,-0.0385,0,0.0094,0.0101,0.0138,0.0169,0.0187,0.0216,0.0264,0.0285,0.0261,0.0288,0.0281,0.0205,0.0103,-0.0029,-0.0177,-0.0248,-0.0358,-0.0385,-0.0346,-0.0354,-0.0378,-0.0371,-0.0438,-0.0438,-0.0437,-0.0437,-0.0437,0,0.0108,0.0124,0.0182,0.0225,0.0247,0.0293,0.0333,0.0332,0.0362,0.0352,0.0375,0.0286,0.022,0.0031,-0.0128,-0.0325,-0.0345,-0.0403,-0.0406,-0.038,-0.0386,-0.0379,-0.0373,-0.0437,-0.0437,-0.0437,-0.0437,0,0.0149,0.0164,0.0208,0.0291,0.0347,0.0414,0.0467,0.0498,0.0498,0.0483,0.0465,0.0354,0.0243,0.0059,-0.0091,-0.0232,-0.0374,-0.0402,-0.0403,-0.0407,-0.038,-0.0384,-0.0378,-0.0436,-0.0436,-0.0436,-0.0436,0,0.0195,0.0235,0.029,0.0366,0.0439,0.0512,0.0533,0.0569,0.0591,0.0568,0.0561,0.0417,0.0323,0.011,-0.0029,-0.0171,-0.021,-0.0253,-0.0263,-0.0266,-0.0199,-0.0138,-0.0135,0,0,0,0,0,0.024,0.0289,0.0365,0.0446,0.0515,0.0554,0.0618,0.0626,0.0625,0.063,0.0597,0.0489,0.0275,0.0173,0.0037,-0.0037,-0.0243,-0.0202,-0.0298,-0.0433,-0.0434,-0.0383,0,0,0,0,0,0,0.0275,0.0343,0.0376,0.0493,0.0551,0.0632,0.067,0.0673,0.0669,0.0642,0.0529,0.0461,0.0246,0.0353,0.0035,-0.0011,-0.0088,-0.0311,-0.0314,-0.0433,-0.0433,-0.0434,-0.0382,0,0,0,0,0]}]]